Vertical_Velocity
-0 -1 1 -6 4 -3 -1 -1 -2 -2 0 -2 -2 -5 -1 -5 6 -2 5 -1 2 -4 -4 -1 0 -1 -2 1 -3 -5 7 0 -2 1 -1 1 0 1 -5 -3 2 1 3 3 -3
-2 2 -3 3 0 -2 -4 3 -3 -3 2 -4 -2 -4 -4 -5 -3 2 -0 -1 -3 3 -5 1 3 -1 7 2 1 7 4 0 2 0 -0 -0 2 -4 2 2 3 1 2 1 1
-3 -4 -5 -3 -5 0 -2 -2 -2 -3 -2 -1 -4 -5 -0 -2 -6 5 -1 -2 -6 -3 0 0 -2 -1 2 -2 -1 -0 2 1 0 0 -0 -1 3 1 1 4 -4 -7 -4 -0 -1
2 -2 -7 -2 0 -6 -2 -2 -2 -2 -3 0 -1 -5 -5 1 12 -2 -3 -1 0 -4 -3 -1 0 3 2 2 -1 7 -1 -0 0 1 0 -0 2 1 2 7 1 1 1 -0 0
1 -2 6 -3 -2 -3 -8 0 2 -6 -4 -5 -3 -4 -10 4 -11 -9 -2 -0 1 -1 -2 -0 1 0 3 1 1 4 -1 -1 -2 -0 -0 -1 -0 -2 2 -1 1 -0 1 2 2
0 2 -5 1 -5 -5 -2 -5 -1 -5 -2 -3 -4 -2 -4 7 -4 0 2 -3 3 2 2 -2 3 -2 1 1 5 -1 0 -1 -1 -0 1 3 -1 5 -1 -1 1 0 2 1 1
-2 -1 -1 -0 -2 -1 -4 -4 1 -5 -3 -1 -5 -2 0 -33 -5 0 -0 -4 2 2 3 1 -1 1 -3 -0 -2 1 3 1 -1 -4 -2 1 9 -2 2 -0 1 1 0 1 0
-2 -1 1 -5 -1 -2 -1 -0 1 3 1 -8 -1 -0 -16 0 2 1 2 -5 -1 -3 1 3 -3 0 3 -5 1 4 6 6 2 2 -2 10 -11 -4 -4 0 0 1 2 1 2
4 -2 -0 1 -4 -2 -4 -4 1 -2 -2 4 -3 1 -13 -7 1 1 1 0 2 2 -1 -3 2 1 3 3 4 4 -1 1 -1 -1 1 9 -5 5 2 2 3 1 1 1 2
-1 0 -1 -2 3 0 -4 -3 -5 0 -5 -1 4 8 -7 -3 -3 0 1 -2 1 2 7 1 3 4 3 6 -4 -1 1 -0 -1 3 4 2 -4 1 -1 1 -1 -0 1 2 1
-3 1 -2 -0 2 -3 -6 4 -1 3 -5 -3 5 -0 -1 3 2 -3 0 1 2 6 3 -0 10 -2 -5 -2 1 2 2 1 -5 -1 5 -2 -1 -5 -3 5 2 0 2 1 1
5 -2 -3 1 -3 -3 2 0 -1 -1 -5 -6 -6 -8 1 7 -1 2 -7 5 4 -1 4 10 -2 -8 0 1 2 2 2 -6 -7 -2 10 -1 -8 -5 0 -7 -5 -2 1 -0 4
-1 -0 -1 -5 -0 3 -1 1 -2 -2 7 -12 -0 3 -0 -1 -8 -19 3 -3 -0 6 -0 2 -6 -0 3 1 5 -1 1 -2 1 -2 -1 7 -5 1 -2 3 4 0 -0 2 -2
4 -0 -6 -0 -1 -2 2 -2 2 -4 7 -4 2 2 2 1 -3 -10 1 5 8 -3 0 -1 -11 1 2 0 5 5 -2 2 1 6 2 4 -7 0 0 -0 2 -0 1 -2 1
-1 2 -5 -1 4 1 -1 0 -3 -3 4 10 4 -0 1 1 4 5 -1 18 -3 -6 9 -10 1 2 5 -14 4 -12 1 1 1 2 10 -2 11 -13 2 3 -2 -2 -0 2 1
0 -1 -1 -4 0 -2 -2 0 -1 5 -10 3 2 1 4 2 -2 1 1 3 -0 8 4 -9 1 2 -3 -1 -0 -0 5 3 2 4 9 -9 9 -14 3 -8 -1 0 1 -1 1
2 -0 0 -1 2 -2 3 -2 5 0 -3 3 2 1 0 0 1 2 0 4 -1 4 5 2 -6 -0 3 7 3 7 6 1 9 10 -9 -0 8 -18 1 1 0 -2 -0 0 -0
1 3 -0 -1 2 2 3 2 8 -8 -8 1 -0 -1 3 1 -1 -0 1 2 2 2 1 2 4 4 -8 -5 -12 -5 4 2 -1 2 -6 2 -4 -7 1 -1 -0 -2 -2 0 3
-0 1 8 -5 -0 0 5 7 -13 -1 -5 2 -1 7 -5 -0 5 3 1 1 0 -2 1 1 -1 1 -0 -1 10 -18 4 -14 10 -0 12 -5 -9 10 1 1 0 2 3 1 -0
-5 1 -2 -1 -0 -1 5 -10 2 -0 1 4 3 7 2 -4 12 6 0 2 2 0 3 -3 2 1 -4 4 0 7 0 7 4 1 0 -5 -3 -10 3 0 1 2 -0 0 1
6 5 -1 -1 5 11 -1 -9 -1 1 5 8 -2 2 -2 1 2 -3 -9 1 -0 1 -1 1 5 -8 3 0 -1 5 3 4 -1 5 3 -0 -17 4 2 1 -2 -2 -1 -2 0
4 4 1 4 10 -0 -0 -11 1 -4 1 1 3 2 0 -1 0 1 -1 2 0 4 1 3 3 0 -9 -5 1 2 -3 0 6 -6 -3 5 -29 0 -0 -1 -1 -0 -2 0 -2
-8 1 14 13 -0 1 -0 -5 1 2 -2 1 0 1 -0 0 5 3 -0 1 1 -0 3 4 -1 1 1 13 6 3 -4 -0 1 2 -7 13 -23 1 -0 0 -2 -0 1 -1 1
-5 2 4 11 -1 0 2 -7 1 -2 -2 1 -0 3 4 3 -1 -3 -1 -1 -1 1 3 1 1 3 -1 -6 2 1 -1 -1 4 3 -4 -9 -12 -9 -4 -1 1 -0 -1 -1 -1
3 -3 -7 -0 5 2 8 2 1 2 -1 3 3 1 -1 3 1 -1 -1 -3 -6 -4 -1 5 2 6 -4 -1 3 1 1 -2 5 -5 11 -17 3 -10 -4 -2 -6 -4 1 3 1
-12 -6 -5 1 6 9 -1 -9 1 -6 13 -3 8 -2 2 4 -3 -3 -0 1 -2 -3 1 0 -4 3 -5 -2 2 2 -2 1 -0 -3 2 3 -11 -1 -7 -2 3 -2 1 2 0
0 -5 1 -7 2 9 -13 -15 -11 5 -9 -1 1 6 4 -6 3 1 -0 -2 -0 5 -1 6 3 3 -10 1 1 2 -12 -2 -2 0 2 4 -25 -2 -5 -0 -2 0 1 1 0
Height
1559 1558 1558 1557 1556 1555 1555 1554 1552 1550 1548 1546 1542 1541 1538 1535 1533 1530 1530 1528 1527 1525 1524 1524 1522 1520 1519 1519 1519 1518 1508 1501 1502 1507 1502 1510 1509 1515 1516 1518 1522 1524 1524 1527 1529
1557 1556 1556 1554 1554 1553 1552 1552 1550 1549 1546 1544 1542 1540 1538 1535 1532 1531 1529 1527 1526 1524 1524 1524 1523 1521 1518 1518 1518 1514 1507 1501 1507 1508 1506 1509 1506 1512 1514 1517 1521 1524 1526 1528 1530
1554 1554 1553 1552 1552 1551 1550 1549 1548 1547 1545 1542 1540 1538 1537 1534 1531 1528 1527 1525 1525 1524 1524 1522 1521 1521 1517 1517 1517 1514 1506 1509 1509 1511 1512 1511 1509 1511 1508 1511 1514 1518 1522 1527 1531
1550 1551 1550 1550 1549 1548 1549 1545 1545 1544 1542 1540 1539 1537 1535 1535 1530 1526 1525 1524 1522 1522 1523 1523 1522 1519 1516 1512 1515 1512 1511 1511 1511 1513 1512 1509 1510 1510 1508 1510 1515 1518 1522 1525 1529
1547 1547 1546 1546 1546 1545 1546 1545 1543 1541 1540 1538 1537 1536 1534 1535 1529 1524 1522 1523 1522 1520 1522 1522 1521 1519 1514 1514 1514 1512 1510 1511 1512 1511 1511 1511 1509 1509 1511 1514 1516 1519 1523 1526 1530
1542 1543 1543 1542 1542 1543 1542 1541 1541 1539 1538 1535 1535 1535 1535 1533 1525 1522 1522 1521 1522 1521 1520 1521 1519 1519 1518 1517 1514 1514 1512 1510 1510 1508 1508 1508 1508 1511 1514 1515 1517 1519 1523 1526 1529
1538 1537 1538 1537 1537 1538 1537 1537 1536 1535 1534 1533 1533 1533 1531 1522 1521 1519 1517 1518 1519 1520 1520 1518 1520 1519 1517 1516 1517 1514 1512 1507 1505 1505 1504 1505 1505 1503 1508 1513 1517 1519 1522 1526 1528
1532 1532 1532 1533 1532 1533 1533 1533 1533 1531 1530 1530 1531 1530 1525 1517 1515 1514 1512 1513 1516 1516 1518 1517 1518 1518 1517 1515 1516 1512 1511 1502 1496 1501 1501 1502 1495 1492 1505 1510 1512 1517 1520 1523 1526
1528 1528 1529 1528 1528 1527 1529 1528 1528 1527 1527 1526 1527 1527 1518 1513 1511 1511 1509 1510 1513 1513 1516 1517 1518 1516 1517 1510 1508 1508 1503 1497 1494 1499 1498 1500 1489 1493 1501 1506 1508 1514 1518 1521 1523
1523 1524 1524 1524 1525 1523 1525 1524 1523 1522 1522 1523 1522 1527 1513 1510 1508 1510 1507 1508 1511 1512 1514 1516 1516 1510 1511 1506 1507 1499 1503 1497 1498 1494 1498 1493 1491 1491 1500 1503 1503 1508 1511 1516 1520
1521 1520 1520 1522 1521 1521 1522 1524 1522 1521 1519 1517 1515 1508 1507 1508 1506 1506 1508 1506 1508 1509 1507 1509 1510 1505 1500 1500 1499 1503 1501 1499 1492 1497 1500 1492 1488 1485 1494 1499 1499 1502 1506 1512 1515
1517 1517 1519 1518 1519 1520 1518 1521 1521 1521 1516 1511 1508 1507 1502 1505 1506 1502 1505 1507 1505 1500 1503 1508 1500 1495 1500 1502 1504 1505 1503 1495 1489 1492 1499 1489 1484 1482 1485 1490 1491 1495 1501 1506 1512
1515 1515 1515 1516 1517 1519 1517 1519 1518 1519 1517 1503 1502 1499 1497 1500 1498 1496 1501 1500 1498 1497 1499 1492 1489 1496 1497 1501 1505 1500 1503 1501 1500 1492 1493 1490 1478 1471 1481 1486 1488 1490 1494 1501 1506
1514 1511 1513 1516 1519 1516 1516 1516 1518 1519 1511 1494 1495 1494 1495 1494 1494 1490 1493 1497 1493 1492 1493 1491 1489 1494 1497 1496 1498 1495 1493 1497 1498 1498 1488 1488 1473 1458 1469 1479 1484 1486 1489 1494 1500
1511 1511 1510 1512 1515 1516 1517 1514 1517 1520 1512 1493 1493 1493 1494 1493 1490 1488 1489 1493 1488 1489 1494 1488 1490 1491 1492 1489 1491 1493 1495 1495 1494 1491 1486 1479 1487 1453 1457 1469 1472 1479 1484 1491 1497
1508 1510 1509 1511 1511 1514 1515 1515 1519 1519 1508 1489 1491 1491 1493 1492 1489 1488 1489 1492 1490 1490 1487 1488 1489 1491 1488 1491 1491 1494 1495 1494 1494 1489 1484 1470 1474 1451 1446 1457 1462 1470 1479 1488 1495
1505 1506 1508 1508 1511 1511 1512 1517 1519 1509 1491 1489 1488 1489 1489 1486 1487 1485 1487 1488 1486 1493 1489 1484 1482 1485 1489 1490 1493 1493 1490 1489 1486 1487 1472 1465 1470 1449 1455 1462 1465 1466 1474 1484 1492
1502 1503 1505 1506 1508 1508 1511 1516 1512 1489 1489 1484 1491 1489 1486 1484 1482 1484 1482 1483 1484 1484 1483 1481 1478 1475 1478 1482 1481 1487 1485 1486 1484 1472 1458 1469 1462 1443 1460 1466 1468 1471 1474 1483 1491
1498 1499 1501 1503 1506 1506 1511 1507 1491 1485 1484 1489 1489 1490 1486 1485 1485 1483 1480 1479 1479 1481 1483 1479 1478 1475 1476 1477 1482 1479 1485 1478 1483 1478 1483 1458 1444 1454 1461 1465 1469 1469 1473 1480 1487
1494 1496 1497 1500 1503 1506 1506 1497 1485 1487 1488 1488 1488 1484 1481 1480 1481 1481 1475 1480 1482 1484 1481 1478 1480 1470 1472 1477 1479 1477 1477 1487 1495 1501 1492 1456 1451 1443 1451 1456 1468 1472 1476 1481 1486
1489 1492 1490 1495 1500 1504 1496 1484 1484 1486 1490 1488 1482 1483 1482 1482 1483 1478 1476 1480 1484 1484 1483 1483 1480 1472 1475 1475 1471 1480 1480 1478 1483 1485 1472 1459 1441 1443 1448 1451 1462 1468 1472 1477 1482
1483 1485 1483 1488 1496 1494 1489 1481 1487 1487 1490 1490 1487 1482 1480 1481 1484 1482 1480 1480 1487 1488 1487 1486 1480 1477 1473 1466 1473 1472 1468 1468 1477 1475 1464 1459 1441 1446 1453 1455 1459 1464 1470 1475 1479
1475 1476 1478 1483 1482 1485 1484 1485 1486 1489 1488 1487 1484 1485 1485 1485 1488 1482 1482 1488 1488 1488 1492 1491 1483 1479 1470 1469 1470 1473 1467 1470 1472 1479 1468 1464 1444 1447 1455 1457 1460 1463 1468 1473 1478
1470 1473 1476 1476 1475 1475 1478 1481 1484 1487 1487 1487 1485 1487 1486 1485 1485 1483 1484 1488 1490 1491 1493 1495 1486 1480 1473 1465 1471 1477 1477 1472 1476 1476 1463 1467 1455 1445 1445 1456 1457 1461 1465 1470 1475
1460 1462 1463 1466 1472 1472 1473 1475 1478 1482 1484 1484 1484 1486 1484 1483 1482 1484 1485 1487 1490 1489 1489 1490 1485 1480 1472 1471 1474 1474 1469 1466 1472 1468 1471 1457 1451 1437 1443 1445 1450 1455 1460 1463 1468
1452 1457 1462 1459 1464 1471 1472 1472 1471 1473 1478 1481 1482 1479 1483 1483 1483 1480 1482 1486 1484 1486 1486 1489 1481 1476 1470 1469 1469 1466 1460 1459 1460 1458 1453 1448 1442 1437 1437 1442 1445 1450 1455 1459 1467
1445 1451 1455 1455 1459 1465 1464 1464 1469 1473 1477 1478 1481 1482 1481 1481 1484 1483 1485 1486 1486 1486 1486 1486 1482 1478 1468 1462 1464 1469 1451 1451 1453 1449 1447 1444 1431 1433 1434 1439 1442 1445 1450 1456 1463